Time,TemperatureF,DewpointF,PressureIn,WindDirection,WindDirectionDegrees,WindSpeedMPH,WindSpeedGustMPH,Humidity,HourlyPrecipIn,Conditions,Clouds,dailyrainin,SoftwareType,DateUTC
2013-05-01 00:01:00,72.3,40.8,-100.00,SW,219,0.0,7.0,32,0.00,,,0.00,meteohub,2013-05-01 07:01:00,
2013-05-01 00:06:00,72.1,41.4,-100.00,East,93,5.0,6.0,33,0.00,,,0.00,meteohub,2013-05-01 07:06:00,
2013-05-01 00:11:00,72.1,41.4,-100.00,East,82,2.0,7.0,33,0.00,,,0.00,meteohub,2013-05-01 07:11:00,
2013-05-01 00:16:00,72.1,40.6,-100.00,East,80,3.0,7.0,32,0.00,,,0.00,meteohub,2013-05-01 07:16:00,
2013-05-01 00:21:00,72.3,40.8,-100.00,East,80,5.0,7.0,32,0.00,,,0.00,meteohub,2013-05-01 07:21:00,
2013-05-01 00:26:00,72.3,41.5,-100.00,ENE,77,7.0,7.0,33,0.00,,,0.00,meteohub,2013-05-01 07:26:00,
2013-05-01 00:31:00,72.5,41.0,-100.00,ENE,66,3.0,9.0,32,0.00,,,0.00,meteohub,2013-05-01 07:31:00,
2013-05-01 00:36:00,72.1,40.6,-100.00,NE,54,4.0,9.0,32,0.00,,,0.00,meteohub,2013-05-01 07:36:00,
2013-05-01 00:41:00,71.4,40.8,-100.00,NE,53,6.0,9.0,33,0.00,,,0.00,meteohub,2013-05-01 07:41:00,
2013-05-01 00:46:00,71.1,40.5,-100.00,ENE,64,3.0,7.0,33,0.00,,,0.00,meteohub,2013-05-01 07:46:00,
2013-05-01 00:51:00,70.7,40.1,-100.00,ENE,62,7.0,9.0,33,0.00,,,0.00,meteohub,2013-05-01 07:51:00,
2013-05-01 00:56:00,70.5,40.8,-100.00,ENE,62,11.0,11.0,34,0.00,,,0.00,meteohub,2013-05-01 07:56:00,
2013-05-01 01:01:00,70.9,41.2,-100.00,ENE,78,13.0,14.0,34,0.00,,,0.00,meteohub,2013-05-01 08:01:00,
2013-05-01 01:06:00,70.9,41.9,-100.00,East,84,11.0,17.0,35,0.00,,,0.00,meteohub,2013-05-01 08:06:00,
2013-05-01 01:11:00,70.3,41.4,-100.00,ENE,72,9.0,17.0,35,0.00,,,0.00,meteohub,2013-05-01 08:11:00,
2013-05-01 01:16:00,70.0,41.7,-100.00,East,94,8.0,17.0,36,0.00,,,0.00,meteohub,2013-05-01 08:16:00,
2013-05-01 01:21:00,69.6,41.5,-100.00,East,92,5.0,15.0,36,0.00,,,0.00,meteohub,2013-05-01 08:21:00,
2013-05-01 01:26:00,69.3,41.9,-100.00,East,93,3.0,14.0,37,0.00,,,0.00,meteohub,2013-05-01 08:26:00,
2013-05-01 01:31:00,69.1,41.7,-100.00,East,89,2.0,11.0,37,0.00,,,0.00,meteohub,2013-05-01 08:31:00,
2013-05-01 01:36:00,69.1,41.7,-100.00,East,99,5.0,10.0,37,0.00,,,0.00,meteohub,2013-05-01 08:36:00,
2013-05-01 01:41:00,68.7,41.4,-100.00,SE,129,2.0,10.0,37,0.00,,,0.00,meteohub,2013-05-01 08:41:00,
2013-05-01 01:46:00,68.5,41.9,-100.00,ESE,121,0.0,9.0,38,0.00,,,0.00,meteohub,2013-05-01 08:46:00,
2013-05-01 01:51:00,67.6,41.7,-100.00,SE,126,2.0,8.0,39,0.00,,,0.00,meteohub,2013-05-01 08:51:00,
2013-05-01 01:56:00,67.5,41.7,-100.00,SSW,196,2.0,5.0,39,0.00,,,0.00,meteohub,2013-05-01 08:56:00,
2013-05-01 02:01:00,67.6,41.2,-100.00,SSW,197,1.0,5.0,38,0.00,,,0.00,meteohub,2013-05-01 09:01:00,
2013-05-01 02:06:00,67.8,41.9,-100.00,SSW,202,2.0,5.0,39,0.00,,,0.00,meteohub,2013-05-01 09:06:00,
2013-05-01 02:11:00,67.5,41.0,-100.00,SSW,202,0.0,4.0,38,0.00,,,0.00,meteohub,2013-05-01 09:11:00,
2013-05-01 02:16:00,68.0,41.4,-100.00,West,262,5.0,7.0,38,0.00,,,0.00,meteohub,2013-05-01 09:16:00,
2013-05-01 02:21:00,68.0,41.4,-100.00,West,268,3.0,7.0,38,0.00,,,0.00,meteohub,2013-05-01 09:21:00,
2013-05-01 02:26:00,67.6,41.7,-100.00,West,260,0.0,7.0,39,0.00,,,0.00,meteohub,2013-05-01 09:26:00,
2013-05-01 02:31:00,67.3,41.5,-100.00,SW,226,6.0,7.0,39,0.00,,,0.00,meteohub,2013-05-01 09:31:00,
2013-05-01 02:36:00,68.5,41.9,-100.00,SSW,194,3.0,7.0,38,0.00,,,0.00,meteohub,2013-05-01 09:36:00,
2013-05-01 02:41:00,69.1,40.3,-100.00,SSW,208,4.0,7.0,35,0.00,,,0.00,meteohub,2013-05-01 09:41:00,
2013-05-01 02:46:00,69.1,35.4,-100.00,North,355,6.0,7.0,29,0.00,,,0.00,meteohub,2013-05-01 09:46:00,
2013-05-01 02:51:00,69.8,36.1,-100.00,NNW,330,6.0,12.0,29,0.00,,,0.00,meteohub,2013-05-01 09:51:00,
2013-05-01 02:56:00,68.9,37.8,-100.00,North,0,12.0,12.0,32,0.00,,,0.00,meteohub,2013-05-01 09:56:00,
2013-05-01 03:01:00,68.5,36.7,-100.00,NNE,18,3.0,14.0,31,0.00,,,0.00,meteohub,2013-05-01 10:01:00,
2013-05-01 03:06:00,69.4,38.3,-100.00,NNE,32,0.0,14.0,32,0.00,,,0.00,meteohub,2013-05-01 10:06:00,
2013-05-01 03:11:00,70.0,37.0,-100.00,NE,49,2.0,14.0,30,0.00,,,0.00,meteohub,2013-05-01 10:11:00,
2013-05-01 03:16:00,70.2,30.6,-100.00,North,351,3.0,10.0,23,0.00,,,0.00,meteohub,2013-05-01 10:16:00,
2013-05-01 03:21:00,70.0,28.2,-100.00,North,5,3.0,9.0,21,0.00,,,0.00,meteohub,2013-05-01 10:21:00,
2013-05-01 03:26:00,70.0,20.1,-100.00,North,355,5.0,9.0,15,0.00,,,0.00,meteohub,2013-05-01 10:26:00,
2013-05-01 03:31:00,70.0,15.1,-100.00,NNW,338,6.0,9.0,12,0.00,,,0.00,meteohub,2013-05-01 10:31:00,
2013-05-01 03:36:00,69.6,12.7,-100.00,NNW,346,8.0,13.0,11,0.00,,,0.00,meteohub,2013-05-01 10:36:00,
2013-05-01 03:41:00,69.3,12.6,-100.00,NW,320,7.0,13.0,11,0.00,,,0.00,meteohub,2013-05-01 10:41:00,
2013-05-01 03:46:00,69.3,12.6,-100.00,NNW,334,7.0,13.0,11,0.00,,,0.00,meteohub,2013-05-01 10:46:00,
2013-05-01 03:51:00,69.3,12.6,-100.00,NNW,328,6.0,13.0,11,0.00,,,0.00,meteohub,2013-05-01 10:51:00,
2013-05-01 03:56:00,68.7,9.9,-100.00,NNW,338,8.0,13.0,10,0.00,,,0.00,meteohub,2013-05-01 10:56:00,
2013-05-01 04:01:00,68.9,10.0,-100.00,NNW,339,7.0,12.0,10,0.00,,,0.00,meteohub,2013-05-01 11:01:00,
2013-05-01 04:06:00,69.1,7.9,-100.00,NW,321,15.0,15.0,9,0.00,,,0.00,meteohub,2013-05-01 11:06:00,
2013-05-01 04:11:00,69.1,7.9,-100.00,NNW,340,17.0,18.0,9,0.00,,,0.00,meteohub,2013-05-01 11:11:00,
2013-05-01 04:16:00,68.9,7.7,-100.00,NNW,331,13.0,20.0,9,0.00,,,0.00,meteohub,2013-05-01 11:16:00,
2013-05-01 04:21:00,68.7,7.5,-100.00,NW,317,15.0,24.0,9,0.00,,,0.00,meteohub,2013-05-01 11:21:00,
2013-05-01 04:26:00,68.9,7.7,-100.00,NNW,338,14.0,24.0,9,0.00,,,0.00,meteohub,2013-05-01 11:26:00,
2013-05-01 04:31:00,68.7,7.5,-100.00,North,350,15.0,24.0,9,0.00,,,0.00,meteohub,2013-05-01 11:31:00,
2013-05-01 04:36:00,68.5,7.5,-100.00,NNW,332,11.0,22.0,9,0.00,,,0.00,meteohub,2013-05-01 11:36:00,
2013-05-01 04:41:00,68.5,7.5,-100.00,NNW,344,6.0,22.0,9,0.00,,,0.00,meteohub,2013-05-01 11:41:00,
2013-05-01 04:46:00,68.4,4.8,-100.00,North,350,13.0,20.0,8,0.00,,,0.00,meteohub,2013-05-01 11:46:00,
2013-05-01 04:51:00,68.2,7.2,-100.00,North,350,9.0,18.0,9,0.00,,,0.00,meteohub,2013-05-01 11:51:00,
2013-05-01 04:56:00,67.6,6.8,-100.00,NNW,347,8.0,18.0,9,0.00,,,0.00,meteohub,2013-05-01 11:56:00,
2013-05-01 05:01:00,67.6,6.8,-100.00,North,355,14.0,16.0,9,0.00,,,0.00,meteohub,2013-05-01 12:01:00,
2013-05-01 05:06:00,67.6,4.3,-100.00,NNW,341,11.0,16.0,8,0.00,,,0.00,meteohub,2013-05-01 12:06:00,
2013-05-01 05:11:00,67.5,6.6,-100.00,NNW,345,17.0,17.0,9,0.00,,,0.00,meteohub,2013-05-01 12:11:00,
2013-05-01 05:16:00,67.6,4.3,-100.00,NW,323,17.0,23.0,8,0.00,,,0.00,meteohub,2013-05-01 12:16:00,
2013-05-01 05:21:00,67.6,4.3,-100.00,NNW,330,17.0,23.0,8,0.00,,,0.00,meteohub,2013-05-01 12:21:00,
2013-05-01 05:26:00,67.6,4.3,-100.00,NNW,333,14.0,23.0,8,0.00,,,0.00,meteohub,2013-05-01 12:26:00,
2013-05-01 05:31:00,67.5,1.2,-100.00,NNW,336,13.0,23.0,7,0.00,,,0.00,meteohub,2013-05-01 12:31:00,
2013-05-01 05:36:00,67.3,1.0,-100.00,NNW,332,14.0,24.0,7,0.00,,,0.00,meteohub,2013-05-01 12:36:00,
2013-05-01 05:41:00,67.3,3.9,-100.00,NNW,336,14.0,24.0,8,0.00,,,0.00,meteohub,2013-05-01 12:41:00,
2013-05-01 05:46:00,67.3,3.9,-100.00,NNW,327,17.0,24.0,8,0.00,,,0.00,meteohub,2013-05-01 12:46:00,
2013-05-01 05:51:00,66.9,3.7,-100.00,NNW,336,19.0,26.0,8,0.00,,,0.00,meteohub,2013-05-01 12:51:00,
2013-05-01 05:56:00,66.7,0.7,-100.00,NW,322,16.0,26.0,7,0.00,,,0.00,meteohub,2013-05-01 12:56:00,
2013-05-01 06:01:00,66.9,0.9,-100.00,NNW,327,20.0,25.0,7,0.00,,,0.00,meteohub,2013-05-01 13:01:00,
2013-05-01 06:06:00,66.7,3.6,-100.00,NW,319,15.0,22.0,8,0.00,,,0.00,meteohub,2013-05-01 13:06:00,
2013-05-01 06:11:00,66.6,0.5,-100.00,NNW,335,12.0,23.0,7,0.00,,,0.00,meteohub,2013-05-01 13:11:00,
2013-05-01 06:16:00,66.7,0.7,-100.00,NNW,345,16.0,23.0,7,0.00,,,0.00,meteohub,2013-05-01 13:16:00,
2013-05-01 06:21:00,66.9,0.9,-100.00,NNW,331,20.0,26.0,7,0.00,,,0.00,meteohub,2013-05-01 13:21:00,
2013-05-01 06:26:00,66.6,0.5,-100.00,NNW,336,20.0,26.0,7,0.00,,,0.00,meteohub,2013-05-01 13:26:00,
2013-05-01 06:31:00,66.6,0.5,-100.00,NNW,344,14.0,26.0,7,0.00,,,0.00,meteohub,2013-05-01 13:31:00,
2013-05-01 06:36:00,66.9,0.9,-100.00,NNW,347,12.0,23.0,7,0.00,,,0.00,meteohub,2013-05-01 13:36:00,
2013-05-01 06:41:00,66.7,0.7,-100.00,NNW,327,10.0,23.0,7,0.00,,,0.00,meteohub,2013-05-01 13:41:00,
2013-05-01 06:46:00,66.6,0.5,-100.00,North,355,7.0,23.0,7,0.00,,,0.00,meteohub,2013-05-01 13:46:00,
2013-05-01 06:51:00,66.6,0.5,-100.00,NNW,344,13.0,23.0,7,0.00,,,0.00,meteohub,2013-05-01 13:51:00,
2013-05-01 06:56:00,67.5,1.2,-100.00,NW,320,10.0,21.0,7,0.00,,,0.00,meteohub,2013-05-01 13:56:00,
2013-05-01 07:01:00,67.3,1.0,-100.00,NNW,347,9.0,21.0,7,0.00,,,0.00,meteohub,2013-05-01 14:01:00,
2013-05-01 07:06:00,67.5,4.1,-100.00,NNW,335,15.0,20.0,8,0.00,,,0.00,meteohub,2013-05-01 14:06:00,
2013-05-01 07:11:00,67.6,-2.0,-100.00,NNW,339,16.0,19.0,6,0.00,,,0.00,meteohub,2013-05-01 14:11:00,
2013-05-01 07:16:00,67.8,1.4,-100.00,NW,319,13.0,22.0,7,0.00,,,0.00,meteohub,2013-05-01 14:16:00,
2013-05-01 07:21:00,67.8,-1.8,-100.00,NNW,343,19.0,22.0,6,0.00,,,0.00,meteohub,2013-05-01 14:21:00,
2013-05-01 07:26:00,67.6,-2.0,-100.00,NNW,340,14.0,22.0,6,0.00,,,0.00,meteohub,2013-05-01 14:26:00,
2013-05-01 07:31:00,68.4,-1.5,-100.00,North,355,20.0,22.0,6,0.00,,,0.00,meteohub,2013-05-01 14:31:00,
2013-05-01 07:36:00,68.7,-1.1,-100.00,NNW,344,11.0,22.0,6,0.00,,,0.00,meteohub,2013-05-01 14:36:00,
2013-05-01 07:41:00,68.7,-1.1,-100.00,NNW,328,9.0,22.0,6,0.00,,,0.00,meteohub,2013-05-01 14:41:00,
2013-05-01 07:46:00,69.3,-0.8,-100.00,NW,320,10.0,20.0,6,0.00,,,0.00,meteohub,2013-05-01 14:46:00,
2013-05-01 07:51:00,69.4,-0.6,-100.00,NNW,348,11.0,22.0,6,0.00,,,0.00,meteohub,2013-05-01 14:51:00,
2013-05-01 07:56:00,70.0,-4.2,-100.00,NNW,336,16.0,22.0,5,0.00,,,0.00,meteohub,2013-05-01 14:56:00,
2013-05-01 08:01:00,69.6,-0.6,-100.00,NNW,340,24.0,24.0,6,0.00,,,0.00,meteohub,2013-05-01 15:01:00,
2013-05-01 08:06:00,70.2,-4.0,-100.00,NNW,340,12.0,26.0,5,0.00,,,0.00,meteohub,2013-05-01 15:06:00,
2013-05-01 08:11:00,70.7,-3.6,-100.00,NNW,346,17.0,26.0,5,0.00,,,0.00,meteohub,2013-05-01 15:11:00,
2013-05-01 08:16:00,70.5,-3.6,-100.00,North,355,16.0,26.0,5,0.00,,,0.00,meteohub,2013-05-01 15:16:00,
2013-05-01 08:21:00,70.7,-3.6,-100.00,NNW,338,12.0,24.0,5,0.00,,,0.00,meteohub,2013-05-01 15:21:00,
2013-05-01 08:26:00,71.4,0.9,-100.00,North,355,14.0,24.0,6,0.00,,,0.00,meteohub,2013-05-01 15:26:00,
2013-05-01 08:31:00,72.0,-2.7,-100.00,North,349,19.0,24.0,5,0.00,,,0.00,meteohub,2013-05-01 15:31:00,
2013-05-01 08:36:00,72.1,1.2,-100.00,North,350,17.0,22.0,6,0.00,,,0.00,meteohub,2013-05-01 15:36:00,
2013-05-01 08:41:00,72.1,1.2,-100.00,NNW,346,7.0,22.0,6,0.00,,,0.00,meteohub,2013-05-01 15:41:00,
2013-05-01 08:46:00,72.9,-2.0,-100.00,NNW,342,18.0,22.0,5,0.00,,,0.00,meteohub,2013-05-01 15:46:00,
2013-05-01 08:51:00,72.9,-2.0,-100.00,NNW,337,16.0,22.0,5,0.00,,,0.00,meteohub,2013-05-01 15:51:00,
2013-05-01 08:56:00,73.6,-1.5,-100.00,NNW,329,7.0,20.0,5,0.00,,,0.00,meteohub,2013-05-01 15:56:00,
2013-05-01 09:02:00,74.3,-1.1,-100.00,North,11,12.0,20.0,5,0.00,,,0.00,meteohub,2013-05-01 16:02:00,
2013-05-01 09:07:00,74.5,-5.6,-100.00,NW,320,13.0,18.0,4,0.00,,,0.00,meteohub,2013-05-01 16:07:00,
2013-05-01 09:12:00,74.5,-0.9,-100.00,North,11,8.0,20.0,5,0.00,,,0.00,meteohub,2013-05-01 16:12:00,
2013-05-01 09:17:00,73.9,-1.3,-100.00,North,350,13.0,20.0,5,0.00,,,0.00,meteohub,2013-05-01 16:17:00,
2013-05-01 09:22:00,73.8,2.5,-100.00,NNW,330,10.0,20.0,6,0.00,,,0.00,meteohub,2013-05-01 16:22:00,
2013-05-01 09:27:00,75.7,0.0,-100.00,East,83,3.0,17.0,5,0.00,,,0.00,meteohub,2013-05-01 16:27:00,
2013-05-01 09:32:00,76.3,4.3,-100.00,NE,49,4.0,15.0,6,0.00,,,0.00,meteohub,2013-05-01 16:32:00,
2013-05-01 09:37:00,76.8,0.7,-100.00,East,81,7.0,12.0,5,0.00,,,0.00,meteohub,2013-05-01 16:37:00,
2013-05-01 09:42:00,76.3,0.3,-100.00,East,96,1.0,10.0,5,0.00,,,0.00,meteohub,2013-05-01 16:42:00,
2013-05-01 09:47:00,75.6,-0.2,-100.00,North,5,3.0,10.0,5,0.00,,,0.00,meteohub,2013-05-01 16:47:00,
2013-05-01 09:52:00,76.8,0.7,-100.00,NE,46,5.0,9.0,5,0.00,,,0.00,meteohub,2013-05-01 16:52:00,
2013-05-01 09:57:00,77.5,1.2,-100.00,NE,49,3.0,9.0,5,0.00,,,0.00,meteohub,2013-05-01 16:57:00,
2013-05-01 10:02:00,76.8,0.7,-100.00,NE,37,0.0,9.0,5,0.00,,,0.00,meteohub,2013-05-01 17:02:00,
2013-05-01 10:07:00,77.2,1.0,-100.00,NE,46,2.0,7.0,5,0.00,,,0.00,meteohub,2013-05-01 17:07:00,
2013-05-01 10:12:00,78.4,1.9,-100.00,ENE,61,0.0,7.0,5,0.00,,,0.00,meteohub,2013-05-01 17:12:00,
2013-05-01 10:17:00,78.4,5.9,-100.00,NNE,24,6.0,8.0,6,0.00,,,0.00,meteohub,2013-05-01 17:17:00,
2013-05-01 10:22:00,79.2,2.5,-100.00,ENE,63,4.0,8.0,5,0.00,,,0.00,meteohub,2013-05-01 17:22:00,
2013-05-01 10:27:00,80.1,3.0,-100.00,ESE,107,2.0,9.0,5,0.00,,,0.00,meteohub,2013-05-01 17:27:00,
2013-05-01 10:32:00,78.3,1.8,-100.00,North,5,4.0,9.0,5,0.00,,,0.00,meteohub,2013-05-01 17:32:00,
2013-05-01 10:37:00,77.4,1.0,-100.00,NNE,13,4.0,9.0,5,0.00,,,0.00,meteohub,2013-05-01 17:37:00,
2013-05-01 10:42:00,76.8,0.7,-100.00,North,10,2.0,9.0,5,0.00,,,0.00,meteohub,2013-05-01 17:42:00,
2013-05-01 10:47:00,77.7,1.4,-100.00,East,80,7.0,9.0,5,0.00,,,0.00,meteohub,2013-05-01 17:47:00,
2013-05-01 10:52:00,80.1,-1.7,-100.00,ENE,62,13.0,13.0,4,0.00,,,0.00,meteohub,2013-05-01 17:52:00,
2013-05-01 10:57:00,80.1,-1.7,-100.00,East,86,7.0,14.0,4,0.00,,,0.00,meteohub,2013-05-01 17:57:00,
2013-05-01 11:02:00,80.4,-1.5,-100.00,East,94,8.0,14.0,4,0.00,,,0.00,meteohub,2013-05-01 18:02:00,
2013-05-01 11:07:00,80.4,3.4,-100.00,East,98,5.0,14.0,5,0.00,,,0.00,meteohub,2013-05-01 18:07:00,
2013-05-01 11:12:00,78.4,1.9,-100.00,South,184,2.0,11.0,5,0.00,,,0.00,meteohub,2013-05-01 18:12:00,
2013-05-01 11:17:00,80.1,3.0,-100.00,SE,132,3.0,9.0,5,0.00,,,0.00,meteohub,2013-05-01 18:17:00,
2013-05-01 11:22:00,80.1,3.0,-100.00,ESE,104,5.0,9.0,5,0.00,,,0.00,meteohub,2013-05-01 18:22:00,
2013-05-01 11:27:00,80.8,3.6,-100.00,East,80,6.0,7.0,5,0.00,,,0.00,meteohub,2013-05-01 18:27:00,
2013-05-01 11:32:00,81.3,-0.9,-100.00,NE,54,15.0,15.0,4,0.00,,,0.00,meteohub,2013-05-01 18:32:00,
2013-05-01 11:37:00,80.8,3.6,-100.00,SE,127,8.0,16.0,5,0.00,,,0.00,meteohub,2013-05-01 18:37:00,
2013-05-01 11:42:00,80.1,-1.7,-100.00,NE,55,7.0,16.0,4,0.00,,,0.00,meteohub,2013-05-01 18:42:00,
2013-05-01 11:47:00,81.1,-0.9,-100.00,ENE,61,3.0,16.0,4,0.00,,,0.00,meteohub,2013-05-01 18:47:00,
2013-05-01 11:52:00,81.1,-0.9,-100.00,SE,140,5.0,11.0,4,0.00,,,0.00,meteohub,2013-05-01 18:52:00,
2013-05-01 11:57:00,82.0,-6.3,-100.00,NE,37,4.0,10.0,3,0.00,,,0.00,meteohub,2013-05-01 18:57:00,
2013-05-01 12:02:00,81.9,-6.5,-100.00,NNE,28,6.0,16.0,3,0.00,,,0.00,meteohub,2013-05-01 19:02:00,
2013-05-01 12:07:00,82.6,-6.0,-100.00,East,80,8.0,16.0,3,0.00,,,0.00,meteohub,2013-05-01 19:07:00,
2013-05-01 12:12:00,82.9,-14.1,-100.00,NNE,26,9.0,16.0,2,0.00,,,0.00,meteohub,2013-05-01 19:12:00,
2013-05-01 12:17:00,82.8,-6.0,-100.00,NNW,344,7.0,21.0,3,0.00,,,0.00,meteohub,2013-05-01 19:17:00,
2013-05-01 12:22:00,82.8,-6.0,-100.00,ENE,78,17.0,28.0,3,0.00,,,0.00,meteohub,2013-05-01 19:22:00,
2013-05-01 12:27:00,82.4,-14.3,-100.00,East,82,10.0,28.0,2,0.00,,,0.00,meteohub,2013-05-01 19:27:00,
2013-05-01 12:32:00,82.9,-5.8,-100.00,North,355,13.0,24.0,3,0.00,,,0.00,meteohub,2013-05-01 19:32:00,
2013-05-01 12:37:00,81.5,-6.7,-100.00,NNE,12,7.0,19.0,3,0.00,,,0.00,meteohub,2013-05-01 19:37:00,
2013-05-01 12:42:00,82.8,-14.1,-100.00,ENE,62,11.0,19.0,2,0.00,,,0.00,meteohub,2013-05-01 19:42:00,
2013-05-01 12:47:00,83.5,-26.9,-100.00,East,98,25.0,28.0,1,0.00,,,0.00,meteohub,2013-05-01 19:47:00,
2013-05-01 12:52:00,82.6,-27.4,-100.00,ENE,60,8.0,28.0,1,0.00,,,0.00,meteohub,2013-05-01 19:52:00,
2013-05-01 12:57:00,82.9,-27.2,-100.00,ENE,71,12.0,28.0,1,0.00,,,0.00,meteohub,2013-05-01 19:57:00,
2013-05-01 13:02:00,83.7,-26.9,-100.00,NE,55,24.0,28.0,1,0.00,,,0.00,meteohub,2013-05-01 20:02:00,
2013-05-01 13:07:00,83.5,-26.9,-100.00,ENE,68,15.0,30.0,1,0.00,,,0.00,meteohub,2013-05-01 20:07:00,
2013-05-01 13:12:00,83.1,-27.2,-100.00,East,89,22.0,30.0,1,0.00,,,0.00,meteohub,2013-05-01 20:12:00,
2013-05-01 13:17:00,83.3,-27.0,-100.00,ENE,71,15.0,30.0,1,0.00,,,0.00,meteohub,2013-05-01 20:17:00,
2013-05-01 13:22:00,82.8,-27.4,-100.00,North,0,6.0,29.0,1,0.00,,,0.00,meteohub,2013-05-01 20:22:00,
2013-05-01 13:27:00,82.6,-27.4,-100.00,East,89,11.0,31.0,1,0.00,,,0.00,meteohub,2013-05-01 20:27:00,
2013-05-01 13:32:00,82.8,-27.4,-100.00,ENE,63,15.0,31.0,1,0.00,,,0.00,meteohub,2013-05-01 20:32:00,
2013-05-01 13:37:00,83.1,-27.2,-100.00,East,96,23.0,27.0,1,0.00,,,0.00,meteohub,2013-05-01 20:37:00,
2013-05-01 13:42:00,83.8,-26.7,-100.00,East,90,21.0,27.0,1,0.00,,,0.00,meteohub,2013-05-01 20:42:00,
2013-05-01 13:47:00,82.9,-27.2,-100.00,ESE,103,15.0,27.0,1,0.00,,,0.00,meteohub,2013-05-01 20:47:00,
2013-05-01 13:52:00,82.8,-27.4,-100.00,East,94,18.0,27.0,1,0.00,,,0.00,meteohub,2013-05-01 20:52:00,
2013-05-01 13:57:00,82.8,-27.4,-100.00,ESE,103,23.0,29.0,1,0.00,,,0.00,meteohub,2013-05-01 20:57:00,
2013-05-01 14:02:00,82.8,-27.4,-100.00,East,90,27.0,29.0,1,0.00,,,0.00,meteohub,2013-05-01 21:02:00,
2013-05-01 14:07:00,82.9,-27.2,-100.00,East,96,18.0,30.0,1,0.00,,,0.00,meteohub,2013-05-01 21:07:00,
2013-05-01 14:12:00,83.5,-26.9,-100.00,East,98,18.0,30.0,1,0.00,,,0.00,meteohub,2013-05-01 21:12:00,
2013-05-01 14:17:00,83.8,83.8,-100.00,ENE,65,14.0,28.0,0,0.00,,,0.00,meteohub,2013-05-01 21:17:00,
2013-05-01 14:22:00,83.7,83.7,-100.00,East,91,16.0,25.0,0,0.00,,,0.00,meteohub,2013-05-01 21:22:00,
2013-05-01 14:27:00,83.7,83.7,-100.00,ESE,107,21.0,26.0,0,0.00,,,0.00,meteohub,2013-05-01 21:27:00,
2013-05-01 14:32:00,83.7,-26.9,-100.00,East,87,16.0,29.0,1,0.00,,,0.00,meteohub,2013-05-01 21:32:00,
2013-05-01 14:37:00,83.8,83.8,-100.00,East,92,19.0,29.0,0,0.00,,,0.00,meteohub,2013-05-01 21:37:00,
2013-05-01 14:42:00,83.1,83.1,-100.00,ESE,120,18.0,28.0,0,0.00,,,0.00,meteohub,2013-05-01 21:42:00,
2013-05-01 14:47:00,83.8,83.8,-100.00,East,84,17.0,28.0,0,0.00,,,0.00,meteohub,2013-05-01 21:47:00,
2013-05-01 14:52:00,83.1,83.1,-100.00,ESE,103,18.0,30.0,0,0.00,,,0.00,meteohub,2013-05-01 21:52:00,
2013-05-01 14:57:00,82.9,-27.2,-100.00,ESE,109,18.0,30.0,1,0.00,,,0.00,meteohub,2013-05-01 21:57:00,
2013-05-01 15:02:00,83.8,83.8,-100.00,East,85,15.0,30.0,0,0.00,,,0.00,meteohub,2013-05-01 22:02:00,
2013-05-01 15:07:00,84.0,84.0,-100.00,ESE,107,21.0,30.0,0,0.00,,,0.00,meteohub,2013-05-01 22:07:00,
2013-05-01 15:12:00,83.7,83.7,-100.00,East,85,23.0,29.0,0,0.00,,,0.00,meteohub,2013-05-01 22:12:00,
2013-05-01 15:17:00,84.0,84.0,-100.00,East,93,25.0,29.0,0,0.00,,,0.00,meteohub,2013-05-01 22:17:00,
2013-05-01 15:22:00,84.4,84.4,-100.00,ESE,108,17.0,29.0,0,0.00,,,0.00,meteohub,2013-05-01 22:22:00,
2013-05-01 15:27:00,84.2,84.2,-100.00,East,94,18.0,26.0,0,0.00,,,0.00,meteohub,2013-05-01 22:27:00,
2013-05-01 15:32:00,84.2,84.2,-100.00,ENE,69,16.0,26.0,0,0.00,,,0.00,meteohub,2013-05-01 22:32:00,
2013-05-01 15:37:00,84.7,84.7,-100.00,East,86,17.0,26.0,0,0.00,,,0.00,meteohub,2013-05-01 22:37:00,
2013-05-01 15:42:00,83.8,83.8,-100.00,East,96,16.0,27.0,0,0.00,,,0.00,meteohub,2013-05-01 22:42:00,
2013-05-01 15:47:00,84.0,84.0,-100.00,ESE,113,15.0,27.0,0,0.00,,,0.00,meteohub,2013-05-01 22:47:00,
2013-05-01 15:52:00,84.0,84.0,-100.00,ESE,105,21.0,27.0,0,0.00,,,0.00,meteohub,2013-05-01 22:52:00,
2013-05-01 15:57:00,83.8,83.8,-100.00,East,101,15.0,26.0,0,0.00,,,0.00,meteohub,2013-05-01 22:57:00,
2013-05-01 16:02:00,83.7,83.7,-100.00,East,94,21.0,25.0,0,0.00,,,0.00,meteohub,2013-05-01 23:02:00,
2013-05-01 16:07:00,84.4,84.4,-100.00,East,92,18.0,25.0,0,0.00,,,0.00,meteohub,2013-05-01 23:07:00,
2013-05-01 16:12:00,84.6,84.6,-100.00,ESE,112,18.0,23.0,0,0.00,,,0.00,meteohub,2013-05-01 23:12:00,
2013-05-01 16:17:00,84.6,84.6,-100.00,East,97,22.0,26.0,0,0.00,,,0.00,meteohub,2013-05-01 23:17:00,
2013-05-01 16:22:00,84.4,84.4,-100.00,East,82,17.0,27.0,0,0.00,,,0.00,meteohub,2013-05-01 23:22:00,
2013-05-01 16:27:00,84.0,84.0,-100.00,East,88,17.0,27.0,0,0.00,,,0.00,meteohub,2013-05-01 23:27:00,
2013-05-01 16:32:00,83.8,83.8,-100.00,East,90,17.0,27.0,0,0.00,,,0.00,meteohub,2013-05-01 23:32:00,
2013-05-01 16:37:00,83.8,83.8,-100.00,East,90,17.0,26.0,0,0.00,,,0.00,meteohub,2013-05-01 23:37:00,
2013-05-01 16:42:00,84.0,84.0,-100.00,East,85,15.0,26.0,0,0.00,,,0.00,meteohub,2013-05-01 23:42:00,
2013-05-01 16:47:00,84.6,84.6,-100.00,East,83,15.0,26.0,0,0.00,,,0.00,meteohub,2013-05-01 23:47:00,
2013-05-01 16:52:00,84.4,84.4,-100.00,East,80,16.0,25.0,0,0.00,,,0.00,meteohub,2013-05-01 23:52:00,
2013-05-01 16:57:00,84.0,84.0,-100.00,East,79,20.0,25.0,0,0.00,,,0.00,meteohub,2013-05-01 23:57:00,
2013-05-01 17:02:00,84.0,84.0,-100.00,ESE,106,17.0,25.0,0,0.00,,,0.00,meteohub,2013-05-02 00:02:00,
2013-05-01 17:07:00,84.0,84.0,-100.00,ESE,103,17.0,31.0,0,0.00,,,0.00,meteohub,2013-05-02 00:07:00,
2013-05-01 17:12:00,84.0,84.0,-100.00,ESE,120,14.0,31.0,0,0.00,,,0.00,meteohub,2013-05-02 00:12:00,
2013-05-01 17:17:00,84.4,84.4,-100.00,ENE,77,16.0,31.0,0,0.00,,,0.00,meteohub,2013-05-02 00:17:00,
2013-05-01 17:22:00,84.0,84.0,-100.00,East,89,21.0,25.0,0,0.00,,,0.00,meteohub,2013-05-02 00:22:00,
2013-05-01 17:27:00,83.8,83.8,-100.00,East,92,14.0,25.0,0,0.00,,,0.00,meteohub,2013-05-02 00:27:00,
2013-05-01 17:32:00,83.7,83.7,-100.00,East,84,11.0,25.0,0,0.00,,,0.00,meteohub,2013-05-02 00:32:00,
2013-05-01 17:37:00,83.8,83.8,-100.00,East,85,11.0,23.0,0,0.00,,,0.00,meteohub,2013-05-02 00:37:00,
2013-05-01 17:42:00,83.8,83.8,-100.00,East,94,10.0,25.0,0,0.00,,,0.00,meteohub,2013-05-02 00:42:00,
2013-05-01 17:47:00,83.5,83.5,-100.00,East,84,14.0,25.0,0,0.00,,,0.00,meteohub,2013-05-02 00:47:00,
2013-05-01 17:52:00,83.7,83.7,-100.00,East,89,15.0,25.0,0,0.00,,,0.00,meteohub,2013-05-02 00:52:00,
2013-05-01 17:57:00,83.7,83.7,-100.00,East,92,15.0,25.0,0,0.00,,,0.00,meteohub,2013-05-02 00:57:00,
2013-05-01 18:02:00,83.3,83.3,-100.00,East,85,14.0,25.0,0,0.00,,,0.00,meteohub,2013-05-02 01:02:00,
2013-05-01 18:07:00,83.3,83.3,-100.00,East,101,16.0,25.0,0,0.00,,,0.00,meteohub,2013-05-02 01:07:00,
2013-05-01 18:12:00,82.9,82.9,-100.00,East,86,18.0,24.0,0,0.00,,,0.00,meteohub,2013-05-02 01:12:00,
2013-05-01 18:17:00,82.8,82.8,-100.00,ENE,71,17.0,25.0,0,0.00,,,0.00,meteohub,2013-05-02 01:17:00,
2013-05-01 18:22:00,82.8,82.8,-100.00,East,94,14.0,25.0,0,0.00,,,0.00,meteohub,2013-05-02 01:22:00,
2013-05-01 18:27:00,82.8,82.8,-100.00,ESE,110,13.0,25.0,0,0.00,,,0.00,meteohub,2013-05-02 01:27:00,
2013-05-01 18:32:00,82.2,82.2,-100.00,East,97,15.0,21.0,0,0.00,,,0.00,meteohub,2013-05-02 01:32:00,
2013-05-01 18:37:00,82.6,82.6,-100.00,East,93,14.0,21.0,0,0.00,,,0.00,meteohub,2013-05-02 01:37:00,
2013-05-01 18:42:00,81.9,81.9,-100.00,ESE,111,12.0,21.0,0,0.00,,,0.00,meteohub,2013-05-02 01:42:00,
2013-05-01 18:47:00,81.5,81.5,-100.00,East,97,19.0,21.0,0,0.00,,,0.00,meteohub,2013-05-02 01:47:00,
2013-05-01 18:52:00,82.0,82.0,-100.00,East,91,9.0,21.0,0,0.00,,,0.00,meteohub,2013-05-02 01:52:00,
2013-05-01 18:57:00,81.7,81.7,-100.00,East,79,13.0,21.0,0,0.00,,,0.00,meteohub,2013-05-02 01:57:00,
2013-05-01 19:02:00,81.1,81.1,-100.00,East,93,11.0,21.0,0,0.00,,,0.00,meteohub,2013-05-02 02:02:00,
2013-05-01 19:07:00,80.2,80.2,-100.00,East,90,7.0,18.0,0,0.00,,,0.00,meteohub,2013-05-02 02:07:00,
2013-05-01 19:12:00,79.9,79.9,-100.00,East,90,13.0,18.0,0,0.00,,,0.00,meteohub,2013-05-02 02:12:00,
2013-05-01 19:17:00,79.9,79.9,-100.00,East,98,9.0,17.0,0,0.00,,,0.00,meteohub,2013-05-02 02:17:00,
2013-05-01 19:22:00,79.9,79.9,-100.00,East,93,7.0,17.0,0,0.00,,,0.00,meteohub,2013-05-02 02:22:00,
2013-05-01 19:27:00,79.5,79.5,-100.00,East,90,11.0,16.0,0,0.00,,,0.00,meteohub,2013-05-02 02:27:00,
2013-05-01 19:32:00,79.0,79.0,-100.00,East,87,9.0,15.0,0,0.00,,,0.00,meteohub,2013-05-02 02:32:00,
2013-05-01 19:37:00,78.4,78.4,-100.00,East,89,13.0,15.0,0,0.00,,,0.00,meteohub,2013-05-02 02:37:00,
2013-05-01 19:42:00,78.4,78.4,-100.00,East,97,10.0,15.0,0,0.00,,,0.00,meteohub,2013-05-02 02:42:00,
2013-05-01 19:47:00,78.3,78.3,-100.00,East,81,8.0,15.0,0,0.00,,,0.00,meteohub,2013-05-02 02:47:00,
2013-05-01 19:52:00,77.7,77.7,-100.00,East,86,6.0,15.0,0,0.00,,,0.00,meteohub,2013-05-02 02:52:00,
2013-05-01 19:57:00,77.2,77.2,-100.00,ENE,68,8.0,13.0,0,0.00,,,0.00,meteohub,2013-05-02 02:57:00,
2013-05-01 20:02:00,77.0,77.0,-100.00,ENE,64,4.0,11.0,0,0.00,,,0.00,meteohub,2013-05-02 03:02:00,
2013-05-01 20:07:00,77.0,77.0,-100.00,East,91,6.0,11.0,0,0.00,,,0.00,meteohub,2013-05-02 03:07:00,
2013-05-01 20:12:00,76.3,76.3,-100.00,East,84,7.0,11.0,0,0.00,,,0.00,meteohub,2013-05-02 03:12:00,
2013-05-01 20:17:00,75.7,75.7,-100.00,ENE,74,4.0,9.0,0,0.00,,,0.00,meteohub,2013-05-02 03:17:00,
2013-05-01 20:22:00,75.6,75.6,-100.00,ENE,61,3.0,9.0,0,0.00,,,0.00,meteohub,2013-05-02 03:22:00,
2013-05-01 20:27:00,74.8,74.8,-100.00,East,85,7.0,9.0,0,0.00,,,0.00,meteohub,2013-05-02 03:27:00,
2013-05-01 20:32:00,74.3,74.3,-100.00,ENE,71,4.0,9.0,0,0.00,,,0.00,meteohub,2013-05-02 03:32:00,
2013-05-01 20:37:00,74.1,74.1,-100.00,East,82,5.0,8.0,0,0.00,,,0.00,meteohub,2013-05-02 03:37:00,
2013-05-01 20:42:00,73.8,73.8,-100.00,ENE,73,4.0,8.0,0,0.00,,,0.00,meteohub,2013-05-02 03:42:00,
2013-05-01 20:47:00,73.0,-33.2,-100.00,ESE,104,4.0,8.0,1,0.00,,,0.00,meteohub,2013-05-02 03:47:00,
2013-05-01 20:52:00,72.0,-21.1,-100.00,ESE,107,5.0,7.0,2,0.00,,,0.00,meteohub,2013-05-02 03:52:00,
2013-05-01 20:57:00,70.9,-21.8,-100.00,ESE,107,2.0,7.0,2,0.00,,,0.00,meteohub,2013-05-02 03:57:00,
2013-05-01 21:01:00,70.5,-22.0,-100.00,ESE,107,2.0,5.0,2,0.00,,,0.00,meteohub,2013-05-02 04:01:00,
2013-05-01 21:03:00,70.3,-22.2,-100.00,ESE,107,3.0,5.0,2,0.00,,,0.00,meteohub,2013-05-02 04:03:00,
2013-05-01 21:08:00,70.2,-22.2,-100.00,ESE,107,3.0,5.0,2,0.00,,,0.00,meteohub,2013-05-02 04:08:00,
2013-05-01 21:13:00,69.6,-14.8,-100.00,ESE,107,2.0,4.0,3,0.00,,,0.00,meteohub,2013-05-02 04:13:00,
2013-05-01 21:18:00,69.4,-22.7,-100.00,ESE,109,1.0,4.0,2,0.00,,,0.00,meteohub,2013-05-02 04:18:00,
2013-05-01 21:23:00,68.4,-9.8,-100.00,ESE,109,0.0,4.0,4,0.00,,,0.00,meteohub,2013-05-02 04:23:00,
2013-05-01 21:28:00,68.4,-9.8,-100.00,ESE,109,2.0,4.0,4,0.00,,,0.00,meteohub,2013-05-02 04:28:00,
2013-05-01 21:33:00,68.5,-23.3,-100.00,East,100,0.0,3.0,2,0.00,,,0.00,meteohub,2013-05-02 04:33:00,
2013-05-01 21:38:00,69.4,-22.7,-100.00,ENE,70,3.0,3.0,2,0.00,,,0.00,meteohub,2013-05-02 04:38:00,
2013-05-01 21:43:00,70.5,-22.0,-100.00,ENE,74,3.0,7.0,2,0.00,,,0.00,meteohub,2013-05-02 04:43:00,
2013-05-01 21:48:00,70.9,-21.8,-100.00,ENE,77,2.0,7.0,2,0.00,,,0.00,meteohub,2013-05-02 04:48:00,
2013-05-01 21:53:00,70.0,-14.4,-100.00,ENE,77,0.0,7.0,3,0.00,,,0.00,meteohub,2013-05-02 04:53:00,
2013-05-01 21:58:00,69.6,-22.5,-100.00,ENE,77,0.0,5.0,2,0.00,,,0.00,meteohub,2013-05-02 04:58:00,
2013-05-01 22:03:00,69.3,-9.2,-100.00,WNW,295,4.0,4.0,4,0.00,,,0.00,meteohub,2013-05-02 05:03:00,
2013-05-01 22:08:00,68.0,-15.9,-100.00,WNW,284,5.0,6.0,3,0.00,,,0.00,meteohub,2013-05-02 05:08:00,
2013-05-01 22:13:00,68.5,-23.3,-100.00,West,274,6.0,6.0,2,0.00,,,0.00,meteohub,2013-05-02 05:13:00,
2013-05-01 22:18:00,68.2,-23.4,-100.00,WNW,284,5.0,7.0,2,0.00,,,0.00,meteohub,2013-05-02 05:18:00,
2013-05-01 22:23:00,67.5,-16.2,-100.00,WNW,284,4.0,7.0,3,0.00,,,0.00,meteohub,2013-05-02 05:23:00,
2013-05-01 22:28:00,66.6,-16.8,-100.00,WNW,283,4.0,7.0,3,0.00,,,0.00,meteohub,2013-05-02 05:28:00,
2013-05-01 22:33:00,66.2,-11.4,-100.00,WNW,284,3.0,7.0,4,0.00,,,0.00,meteohub,2013-05-02 05:33:00,
2013-05-01 22:38:00,66.7,-16.6,-100.00,WNW,284,2.0,5.0,3,0.00,,,0.00,meteohub,2013-05-02 05:38:00,
2013-05-01 22:43:00,65.8,-11.6,-100.00,WNW,284,0.0,5.0,4,0.00,,,0.00,meteohub,2013-05-02 05:43:00,
2013-05-01 22:48:00,65.3,-11.9,-100.00,WNW,284,1.0,5.0,4,0.00,,,0.00,meteohub,2013-05-02 05:48:00,
2013-05-01 22:53:00,65.7,-3.5,-100.00,West,274,2.0,4.0,6,0.00,,,0.00,meteohub,2013-05-02 05:53:00,
2013-05-01 22:58:00,66.2,-6.9,-100.00,SSW,197,4.0,4.0,5,0.00,,,0.00,meteohub,2013-05-02 05:58:00,
2013-05-01 23:03:00,65.1,-12.1,-100.00,South,184,3.0,4.0,4,0.00,,,0.00,meteohub,2013-05-02 06:03:00,
2013-05-01 23:08:00,64.8,-12.3,-100.00,South,184,0.0,5.0,4,0.00,,,0.00,meteohub,2013-05-02 06:08:00,
2013-05-01 23:13:00,63.9,-4.7,-100.00,South,184,0.0,5.0,6,0.00,,,0.00,meteohub,2013-05-02 06:13:00,
2013-05-01 23:18:00,64.4,-12.6,-100.00,South,184,0.0,4.0,4,0.00,,,0.00,meteohub,2013-05-02 06:18:00,
2013-05-01 23:23:00,64.8,-7.8,-100.00,South,184,5.0,5.0,5,0.00,,,0.00,meteohub,2013-05-02 06:23:00,
2013-05-01 23:28:00,64.0,-8.3,-100.00,SSW,198,2.0,4.0,5,0.00,,,0.00,meteohub,2013-05-02 06:28:00,
2013-05-01 23:33:00,64.0,-8.3,-100.00,SSW,202,3.0,6.0,5,0.00,,,0.00,meteohub,2013-05-02 06:33:00,
2013-05-01 23:38:00,64.6,-12.5,-100.00,SSW,202,4.0,7.0,4,0.00,,,0.00,meteohub,2013-05-02 06:38:00,
2013-05-01 23:43:00,65.1,-12.1,-100.00,SSW,202,1.0,7.0,4,0.00,,,0.00,meteohub,2013-05-02 06:43:00,
2013-05-01 23:48:00,64.9,-7.8,-100.00,SSW,202,2.0,6.0,5,0.00,,,0.00,meteohub,2013-05-02 06:48:00,
2013-05-01 23:53:00,63.9,-8.5,-100.00,SSW,203,4.0,5.0,5,0.00,,,0.00,meteohub,2013-05-02 06:53:00,
2013-05-01 23:58:00,63.0,-5.4,-100.00,SSW,205,4.0,5.0,6,0.00,,,0.00,meteohub,2013-05-02 06:58:00,